Weather History for Las Vegas, NV

Change the Weather History Date:

Sunday, August 25, 2013

  Actual Average Record
Temperature  
Mean Temperature 83 °F 89 °F  
Max Temperature 90 °F 101 °F 111 °F (2011)
Min Temperature 75 °F 78 °F 59 °F (1944)
Degree Days  
Heating Degree Days 0 0  
Month to date heating degree days 0 0  
Since 1 June heating degree days 0 1  
Since 1 July heating degree days 0 0  
Cooling Degree Days 18 24  
Month to date cooling degree days 647 653  
Year to date cooling degree days 3056 2707  
Since 1 June cooling degree days 2366 2157  
Growing Degree Days 32 (Base 50)    
Moisture  
Dew Point 59 °F    
Average Humidity 49    
Maximum Humidity 64    
Minimum Humidity 34    
Precipitation  
Precipitation T in 0.00 in 0.03 in (1984)
Month to date precipitation 0.17 0.27  
Year to date precipitation 1.08 2.75  
Snow  
Snow 0.00 in 0.00 in 0.00 in ()
Month to date snowfall 0.0 0.0  
Since 1 June snowfall 0.0 0.0  
Since 1 July snowfall 0.0 0.0  
Snow Depth 0.00 in    
Sea Level Pressure  
Sea Level Pressure 29.91 in    
Wind  
Wind Speed 7 mph (SSE)    
Max Wind Speed 23 mph    
Max Gust Speed 30 mph    
Visibility 10 miles    
Events Rain    
T = Trace of Precipitation, MM = Missing Value Source: NWS Daily Summary

Daily Weather History Graph

Daily Weather History Graph

Search for Another Location

Airport:

Trip Planner

Search our weather history database for the weather conditions in past years. The results will help you decide how hot, cold, wet, or windy it might be!

Date:

Astronomy

Aug. 25, 2013 Rise Set
Actual Time 6:07 AM PDT 7:17 PM PDT
Civil Twilight 5:40 AM PDT 7:43 PM PDT
Nautical Twilight 5:08 AM PDT 8:15 PM PDT
Astronomical Twilight 4:35 AM PDT 8:48 PM PDT
Moon 10:03 PM PDT (8/25) 11:02 AM PDT (8/25)
Length of Visible Light 14h 03m
Length of Day
13h 10m
Waning Gibbous, 75% of the Moon is Illuminated
Aug 25
Waning Gibbous
Aug 28
Last Quarter
Sep 5
New
Sep 12
First Quarter
Sep 19
Full

Hourly Weather History & Observations

Time (PDT) Temp. Heat Index Dew Point Humidity Pressure Visibility Wind Dir Wind Speed Gust Speed Precip Events Conditions
12:56 AM 80.1 °F 80.2 °F 55.9 °F 43% 29.83 in 10.0 mi South 5.8 mph - N/A   Clear
1:56 AM 80.1 °F 80.2 °F 55.9 °F 43% 29.82 in 10.0 mi SSW 10.4 mph - N/A   Clear
2:56 AM 77.0 °F - 57.0 °F 50% 29.84 in 10.0 mi SW 10.4 mph - N/A   Clear
3:56 AM 77.0 °F - 55.9 °F 48% 29.85 in 10.0 mi Calm Calm - N/A   Clear
4:56 AM 75.9 °F - 57.0 °F 52% 29.86 in 10.0 mi SSW 9.2 mph - N/A   Clear
5:56 AM 75.0 °F - 57.0 °F 53% 29.86 in 10.0 mi SSW 6.9 mph - N/A   Partly Cloudy
6:56 AM 75.0 °F - 57.0 °F 53% 29.89 in 10.0 mi SSW 9.2 mph - N/A   Partly Cloudy
7:56 AM 79.0 °F - 57.0 °F 47% 29.90 in 10.0 mi Calm Calm - N/A   Scattered Clouds
8:56 AM 82.9 °F 82.1 °F 55.9 °F 39% 29.90 in 10.0 mi Calm Calm - N/A   Scattered Clouds
9:56 AM 82.9 °F 82.1 °F 55.9 °F 39% 29.91 in 10.0 mi Variable 4.6 mph - N/A   Mostly Cloudy
10:56 AM 86.0 °F 84.7 °F 55.9 °F 36% 29.90 in 10.0 mi SE 6.9 mph - N/A   Mostly Cloudy
11:56 AM 89.1 °F 87.7 °F 57.0 °F 34% 29.88 in 10.0 mi Calm Calm - N/A   Mostly Cloudy
12:56 PM 88.0 °F 87.1 °F 59.0 °F 37% 29.86 in 10.0 mi South 17.3 mph 24.2 mph N/A   Mostly Cloudy
1:56 PM 84.0 °F 85.8 °F 64.9 °F 53% 29.87 in 10.0 mi SE 16.1 mph 28.8 mph N/A   Overcast
2:56 PM 82.9 °F 82.6 °F 57.9 °F 42% 29.91 in 10.0 mi East 17.3 mph 23.0 mph N/A   Overcast
3:56 PM 81.0 °F 81.6 °F 60.1 °F 49% 29.90 in 10.0 mi SSE 9.2 mph - 0.00 in Rain Light Rain
4:56 PM 81.0 °F 81.9 °F 62.1 °F 52% 29.91 in 10.0 mi SSE 6.9 mph - 0.00 in   Mostly Cloudy
5:36 PM 80.6 °F 81.5 °F 60.8 °F 51% 29.99 in 10.0 mi SSE 5.8 mph - N/A   Mostly Cloudy
5:56 PM 79.0 °F - 64.0 °F 60% 29.94 in 10.0 mi Variable 3.5 mph - N/A   Mostly Cloudy
6:56 PM 78.1 °F - 64.0 °F 62% 29.95 in 10.0 mi East 8.1 mph - N/A   Mostly Cloudy
7:56 PM 77.0 °F - 64.0 °F 64% 29.95 in 10.0 mi SE 8.1 mph - N/A   Mostly Cloudy
8:56 PM 77.0 °F - 63.0 °F 62% 29.96 in 10.0 mi SE 8.1 mph - N/A   Mostly Cloudy
9:56 PM 75.9 °F - 62.1 °F 62% 29.98 in 10.0 mi SSE 6.9 mph - N/A   Mostly Cloudy
10:56 PM 75.0 °F - 62.1 °F 64% 29.98 in 10.0 mi SE 4.6 mph - N/A   Overcast
11:56 PM 75.0 °F - 62.1 °F 64% 29.97 in 10.0 mi Variable 3.5 mph - N/A   Overcast